START_TIME,STEP,MOV.,H8,t_acc.,H43,t_acc.,M25,t_acc.,H9,t_acc.
1979-03-04 15:13:31.010 ,0,0,2.,12.0,0.,12.0,0.,12.0,0.,12.0
1979-03-04 15:13:43.010 ,0,0,1.,12.0,0.,12.0,0.,12.0,0.,12.0
1979-03-04 15:13:55.010 ,5,0,4.,12.0,0.,12.0,0.,12.0,0.,12.0
1979-03-04 15:14:07.010 ,5,0,3.,12.0,0.,12.0,0.,12.0,0.,12.0
1979-03-04 15:14:19.010 ,6,0,5.,12.0,0.,12.0,0.,12.0,0.,12.0
1979-03-04 15:14:31.010 ,6,0,7.,12.0,0.,12.0,0.,12.0,0.,12.0
1979-03-04 15:14:43.010 ,7,0,3.,12.0,0.,12.0,0.,12.0,0.,12.0
1979-03-04 15:14:55.010 ,7,0,0.,12.0,0.,12.0,0.,12.0,0.,12.0
1979-03-04 15:15:07.010 ,7,0,0.,12.0,0.,12.0,0.,12.0,0.,12.0
1979-03-04 15:15:19.010 ,7,0,0.,12.0,0.,12.0,0.,12.0,0.,12.0
1979-03-04 15:15:31.010 ,6,0,0.,12.0,0.,12.0,0.,12.0,0.,12.0
1979-03-04 15:15:43.010 ,6,0,2.,12.0,0.,12.0,0.,12.0,0.,12.0
1979-03-04 15:15:55.010 ,5,0,3.,12.0,0.,12.0,0.,12.0,0.,12.0
1979-03-04 15:16:07.010 ,5,0,3.,12.0,0.,12.0,0.,12.0,0.,12.0
1979-03-04 15:16:19.010 ,4,0,4.,12.0,0.,12.0,0.,12.0,0.,12.0
1979-03-04 15:16:31.010 ,4,0,4.,12.0,0.,12.0,0.,12.0,0.,12.0
1979-03-04 15:16:43.010 ,3,0,1.,12.0,0.,12.0,0.,12.0,0.,12.0
1979-03-04 15:16:55.010 ,3,0,0.,12.0,0.,12.0,0.,12.0,0.,12.0
1979-03-04 15:17:07.010 ,2,0,1.,12.0,0.,12.0,0.,12.0,0.,12.0
1979-03-04 15:17:19.010 ,2,0,1.,12.0,0.,12.0,0.,12.0,0.,12.0
1979-03-04 15:17:31.010 ,1,0,1.,12.0,0.,12.0,0.,12.0,0.,12.0
1979-03-04 15:17:43.010 ,1,0,1.,12.0,0.,12.0,0.,12.0,0.,12.0
1979-03-04 15:17:55.010 ,0,0,1.,12.0,0.,12.0,0.,12.0,0.,12.0
1979-03-04 15:18:07.010 ,0,0,2.,12.0,0.,12.0,0.,12.0,0.,12.0
1979-03-04 15:18:19.010 ,0,0,0.,12.0,0.,12.0,0.,12.0,0.,12.0
1979-03-04 15:18:31.010 ,0,0,3.,12.0,0.,12.0,0.,12.0,0.,12.0
1979-03-04 15:18:43.010 ,1,0,2.,12.0,0.,12.0,0.,12.0,0.,12.0
1979-03-04 15:18:55.010 ,1,0,3.,12.0,0.,12.0,0.,12.0,0.,12.0
1979-03-04 15:19:07.010 ,2,0,4.,12.0,0.,12.0,0.,12.0,0.,12.0
1979-03-04 15:19:19.010 ,2,0,2.,12.0,0.,12.0,0.,12.0,0.,12.0
1979-03-04 15:19:31.010 ,3,0,2.,12.0,0.,12.0,0.,12.0,0.,12.0
1979-03-04 15:19:43.010 ,3,0,2.,12.0,0.,12.0,0.,12.0,0.,12.0
1979-03-04 15:19:55.010 ,4,0,0.,12.0,0.,12.0,0.,12.0,0.,12.0
1979-03-04 15:20:07.010 ,4,0,5.,12.0,0.,12.0,0.,12.0,0.,12.0
1979-03-04 15:20:19.010 ,5,0,7.,12.0,0.,12.0,0.,12.0,0.,12.0
1979-03-04 15:20:31.010 ,5,0,11.,12.0,0.,12.0,0.,12.0,0.,12.0
1979-03-04 15:20:43.010 ,6,0,2.,12.0,0.,12.0,0.,12.0,0.,12.0
1979-03-04 15:20:55.010 ,6,0,5.,12.0,0.,12.0,0.,12.0,0.,12.0
1979-03-04 15:21:07.010 ,7,0,8.,12.0,0.,12.0,0.,12.0,0.,12.0
1979-03-04 15:21:19.010 ,7,0,0.,12.0,0.,12.0,0.,12.0,0.,12.0
1979-03-04 15:21:31.010 ,7,0,0.,12.0,0.,12.0,0.,12.0,0.,12.0
1979-03-04 15:21:43.010 ,7,0,0.,12.0,0.,12.0,0.,12.0,0.,12.0
1979-03-04 15:21:55.010 ,6,0,1.,12.0,0.,12.0,0.,12.0,0.,12.0
1979-03-04 15:22:07.010 ,6,0,7.,12.0,0.,12.0,0.,12.0,0.,12.0
1979-03-04 15:22:19.010 ,5,0,3.,12.0,0.,12.0,0.,12.0,0.,12.0
1979-03-04 15:22:31.010 ,5,0,6.,12.0,0.,12.0,0.,12.0,0.,12.0
1979-03-04 15:22:43.010 ,4,0,9.,12.0,0.,12.0,0.,12.0,0.,12.0
1979-03-04 15:22:55.010 ,4,0,2.,12.0,0.,12.0,0.,12.0,0.,12.0
1979-03-04 15:23:07.010 ,0,0,6.,12.0,0.,12.0,0.,12.0,0.,12.0
1979-03-04 15:23:19.010 ,0,0,1.,12.0,0.,12.0,0.,12.0,0.,12.0
1979-03-04 15:23:31.010 ,2,0,1.,12.0,0.,12.0,0.,12.0,0.,12.0
1979-03-04 15:23:43.010 ,2,0,0.,12.0,0.,12.0,0.,12.0,0.,12.0
1979-03-04 15:23:55.010 ,1,0,3.,12.0,0.,12.0,0.,12.0,0.,12.0
1979-03-04 15:24:07.010 ,1,0,3.,12.0,0.,12.0,0.,12.0,0.,12.0
1979-03-04 15:24:19.010 ,0,0,1.,12.0,0.,12.0,0.,12.0,0.,12.0
1979-03-04 15:24:31.010 ,0,0,5.,12.0,0.,12.0,0.,12.0,0.,12.0
1979-03-04 15:24:43.010 ,0,0,2.,12.0,0.,12.0,0.,12.0,0.,12.0
1979-03-04 15:24:55.010 ,0,0,1.,12.0,0.,12.0,0.,12.0,0.,12.0
1979-03-04 15:25:07.010 ,1,0,1.,12.0,0.,12.0,0.,12.0,0.,12.0
1979-03-04 15:25:19.010 ,1,0,2.,12.0,0.,12.0,0.,12.0,0.,12.0
1979-03-04 15:25:31.010 ,2,0,2.,12.0,0.,12.0,0.,12.0,0.,12.0
1979-03-04 15:25:43.010 ,2,0,2.,12.0,0.,12.0,0.,12.0,0.,12.0
1979-03-04 15:25:55.010 ,3,0,1.,12.0,0.,12.0,0.,12.0,0.,12.0
1979-03-04 15:26:07.010 ,3,0,3.,12.0,0.,12.0,0.,12.0,0.,12.0
1979-03-04 15:26:19.010 ,4,0,4.,12.0,0.,12.0,0.,12.0,0.,12.0
1979-03-04 15:26:31.010 ,4,0,8.,12.0,0.,12.0,0.,12.0,0.,12.0
1979-03-04 15:26:43.010 ,5,0,3.,12.0,0.,12.0,0.,12.0,0.,12.0
1979-03-04 15:26:55.010 ,5,0,7.,12.0,0.,12.0,0.,12.0,0.,12.0
1979-03-04 15:27:07.010 ,6,0,6.,12.0,0.,12.0,0.,12.0,0.,12.0
1979-03-04 15:27:19.010 ,6,0,4.,12.0,0.,12.0,0.,12.0,0.,12.0
1979-03-04 15:27:31.010 ,7,0,8.,12.0,0.,12.0,0.,12.0,0.,12.0
1979-03-04 15:27:43.010 ,7,0,0.,12.0,0.,12.0,0.,12.0,0.,12.0
1979-03-04 15:27:55.010 ,7,0,0.,12.0,0.,12.0,0.,12.0,0.,12.0
1979-03-04 15:28:07.010 ,7,0,0.,12.0,0.,12.0,0.,12.0,0.,12.0
1979-03-04 15:28:19.010 ,6,0,0.,12.0,0.,12.0,0.,12.0,0.,12.0
1979-03-04 15:28:31.010 ,6,0,4.,12.0,0.,12.0,0.,12.0,0.,12.0
1979-03-04 15:28:43.010 ,5,0,5.,12.0,0.,12.0,0.,12.0,0.,12.0
1979-03-04 15:28:55.010 ,5,0,10.,12.0,0.,12.0,0.,12.0,0.,12.0
1979-03-04 15:29:07.010 ,4,0,7.,12.0,0.,12.0,0.,12.0,0.,12.0
1979-03-04 15:29:19.010 ,4,0,5.,12.0,0.,12.0,0.,12.0,0.,12.0
1979-03-04 15:29:31.010 ,3,0,2.,12.0,0.,12.0,0.,12.0,0.,12.0
1979-03-04 15:29:43.010 ,3,0,3.,12.0,0.,12.0,0.,12.0,0.,12.0
1979-03-04 15:29:55.010 ,2,0,2.,12.0,0.,12.0,0.,12.0,0.,12.0
1979-03-04 15:30:07.010 ,2,0,2.,12.0,0.,12.0,0.,12.0,0.,12.0
1979-03-04 15:30:19.010 ,1,0,1.,12.0,0.,12.0,0.,12.0,0.,12.0
1979-03-04 15:30:31.010 ,1,0,0.,12.0,0.,12.0,0.,12.0,0.,12.0
1979-03-04 15:30:43.010 ,0,0,4.,12.0,0.,12.0,0.,12.0,0.,12.0
1979-03-04 15:30:55.010 ,0,0,1.,12.0,0.,12.0,0.,12.0,0.,12.0
1979-03-04 15:31:07.010 ,0,0,5.,12.0,0.,12.0,0.,12.0,0.,12.0
1979-03-04 15:31:19.010 ,0,0,3.,12.0,0.,12.0,0.,12.0,0.,12.0
1979-03-04 15:31:31.010 ,1,0,1.,12.0,0.,12.0,0.,12.0,0.,12.0
1979-03-04 15:31:43.010 ,1,0,4.,12.0,0.,12.0,0.,12.0,0.,12.0
1979-03-04 15:31:55.010 ,2,0,0.,12.0,0.,12.0,0.,12.0,0.,12.0
1979-03-04 15:32:07.010 ,2,0,4.,12.0,0.,12.0,0.,12.0,0.,12.0
1979-03-04 15:32:19.010 ,3,0,1.,12.0,0.,12.0,0.,12.0,0.,12.0
1979-03-04 15:32:31.010 ,3,0,0.,12.0,0.,12.0,0.,12.0,0.,12.0
1979-03-04 15:32:43.010 ,4,0,4.,12.0,0.,12.0,0.,12.0,0.,12.0
1979-03-04 15:32:55.010 ,4,0,1.,12.0,0.,12.0,0.,12.0,0.,12.0
1979-03-04 15:33:07.010 ,5,0,1.,12.0,0.,12.0,0.,12.0,0.,12.0
1979-03-04 15:33:19.010 ,5,0,2.,12.0,0.,12.0,0.,12.0,0.,12.0
1979-03-04 15:33:31.010 ,6,0,4.,12.0,0.,12.0,0.,12.0,0.,12.0
1979-03-04 15:33:43.010 ,6,0,6.,12.0,0.,12.0,0.,12.0,0.,12.0
1979-03-04 15:33:55.010 ,7,0,3.,12.0,0.,12.0,0.,12.0,0.,12.0
1979-03-04 15:34:07.010 ,7,0,0.,12.0,0.,12.0,0.,12.0,0.,12.0
1979-03-04 15:34:19.010 ,7,0,0.,12.0,0.,12.0,0.,12.0,0.,12.0
1979-03-04 15:34:31.010 ,7,0,0.,12.0,0.,12.0,0.,12.0,0.,12.0
1979-03-04 15:34:43.010 ,6,0,0.,12.0,0.,12.0,0.,12.0,0.,12.0
1979-03-04 15:34:55.010 ,6,0,5.,12.0,0.,12.0,0.,12.0,0.,12.0
1979-03-04 15:35:07.010 ,5,0,6.,12.0,0.,12.0,0.,12.0,0.,12.0
1979-03-04 15:35:19.010 ,5,0,5.,12.0,0.,12.0,0.,12.0,0.,12.0
1979-03-04 15:35:31.010 ,4,0,4.,12.0,0.,12.0,0.,12.0,0.,12.0
1979-03-04 15:35:43.010 ,4,0,4.,12.0,0.,12.0,0.,12.0,0.,12.0
1979-03-04 15:35:55.010 ,3,0,2.,12.0,0.,12.0,0.,12.0,0.,12.0
1979-03-04 15:36:07.010 ,3,0,4.,12.0,0.,12.0,0.,12.0,0.,12.0
1979-03-04 15:36:19.010 ,2,0,4.,12.0,0.,12.0,0.,12.0,0.,12.0
1979-03-04 15:36:31.010 ,2,0,1.,12.0,0.,12.0,0.,12.0,0.,12.0
1979-03-04 15:36:43.010 ,1,0,0.,12.0,0.,12.0,0.,12.0,0.,12.0
1979-03-04 15:36:55.010 ,1,0,3.,12.0,0.,12.0,0.,12.0,0.,12.0
1979-03-04 15:37:07.010 ,0,0,2.,12.0,0.,12.0,0.,12.0,0.,12.0
1979-03-04 15:37:19.010 ,0,0,7.,12.0,0.,12.0,0.,12.0,0.,12.0
1979-03-04 15:37:31.010 ,0,0,2.,12.0,0.,12.0,0.,12.0,0.,12.0
1979-03-04 15:37:43.010 ,0,0,1.,12.0,0.,12.0,0.,12.0,0.,12.0
1979-03-04 15:37:55.010 ,1,0,4.,12.0,0.,12.0,0.,12.0,0.,12.0
1979-03-04 15:38:07.010 ,1,0,2.,12.0,0.,12.0,0.,12.0,0.,12.0
1979-03-04 15:38:19.010 ,2,0,3.,12.0,0.,12.0,0.,12.0,0.,12.0
1979-03-04 15:38:31.010 ,2,0,3.,12.0,0.,12.0,0.,12.0,0.,12.0
1979-03-04 15:38:43.010 ,3,0,3.,12.0,0.,12.0,0.,12.0,0.,12.0
1979-03-04 15:38:55.010 ,3,0,4.,12.0,0.,12.0,0.,12.0,0.,12.0
1979-03-04 15:39:07.010 ,4,0,0.,12.0,0.,12.0,0.,12.0,0.,12.0
1979-03-04 15:39:19.010 ,4,0,4.,12.0,0.,12.0,0.,12.0,0.,12.0
1979-03-04 15:39:31.010 ,5,0,8.,12.0,0.,12.0,0.,12.0,0.,12.0
1979-03-04 15:39:43.010 ,5,0,1.,12.0,0.,12.0,0.,12.0,0.,12.0
1979-03-04 15:39:55.010 ,6,0,6.,12.0,0.,12.0,0.,12.0,0.,12.0
1979-03-04 15:40:07.010 ,6,0,2.,12.0,0.,12.0,0.,12.0,0.,12.0
1979-03-04 15:40:19.010 ,7,0,2.,12.0,0.,12.0,0.,12.0,0.,12.0
1979-03-04 15:40:31.010 ,7,0,0.,12.0,0.,12.0,0.,12.0,0.,12.0
1979-03-04 15:40:43.010 ,7,0,0.,12.0,0.,12.0,0.,12.0,0.,12.0
1979-03-04 15:40:55.010 ,7,0,0.,12.0,0.,12.0,0.,12.0,0.,12.0
1979-03-04 15:41:07.010 ,6,0,0.,12.0,0.,12.0,0.,12.0,0.,12.0
1979-03-04 15:41:19.010 ,6,0,2.,12.0,0.,12.0,0.,12.0,0.,12.0
1979-03-04 15:41:31.010 ,5,0,3.,12.0,0.,12.0,0.,12.0,0.,12.0
1979-03-04 15:41:43.010 ,5,0,9.,12.0,0.,12.0,0.,12.0,0.,12.0
1979-03-04 15:41:55.010 ,4,0,4.,12.0,0.,12.0,0.,12.0,0.,12.0
1979-03-04 15:42:07.010 ,4,0,0.,12.0,0.,12.0,0.,12.0,0.,12.0
1979-03-04 15:42:19.010 ,3,0,2.,12.0,0.,12.0,0.,12.0,0.,12.0
1979-03-04 15:42:31.010 ,3,0,2.,12.0,0.,12.0,0.,12.0,0.,12.0
1979-03-04 15:42:43.010 ,2,0,0.,12.0,0.,12.0,0.,12.0,0.,12.0
1979-03-04 15:42:55.010 ,2,0,0.,12.0,0.,12.0,0.,12.0,0.,12.0
1979-03-04 15:43:07.010 ,1,0,1.,12.0,0.,12.0,0.,12.0,0.,12.0
1979-03-04 15:43:19.010 ,1,0,4.,12.0,0.,12.0,0.,12.0,0.,12.0
1979-03-04 15:43:31.010 ,0,0,3.,12.0,0.,12.0,0.,12.0,0.,12.0
1979-03-04 15:43:43.010 ,0,0,0.,12.0,0.,12.0,0.,12.0,0.,12.0
1979-03-04 15:43:55.010 ,0,0,4.,12.0,0.,12.0,0.,12.0,0.,12.0
1979-03-04 15:44:07.010 ,0,0,6.,12.0,0.,12.0,0.,12.0,0.,12.0
1979-03-04 15:44:19.010 ,1,0,2.,12.0,0.,12.0,0.,12.0,0.,12.0
1979-03-04 15:44:31.010 ,1,0,0.,12.0,0.,12.0,0.,12.0,0.,12.0
1979-03-04 15:44:43.010 ,2,0,1.,12.0,0.,12.0,0.,12.0,0.,12.0
1979-03-04 15:44:55.010 ,2,0,1.,12.0,0.,12.0,0.,12.0,0.,12.0
1979-03-04 15:45:07.010 ,3,0,3.,12.0,0.,12.0,0.,12.0,0.,12.0
1979-03-04 15:45:19.010 ,3,0,0.,12.0,0.,12.0,0.,12.0,0.,12.0
1979-03-04 15:45:31.010 ,4,0,2.,12.0,0.,12.0,0.,12.0,0.,12.0
1979-03-04 15:45:43.010 ,4,0,3.,12.0,0.,12.0,0.,12.0,0.,12.0
1979-03-04 15:45:55.010 ,5,0,8.,12.0,0.,12.0,0.,12.0,0.,12.0
1979-03-04 15:46:07.010 ,5,0,6.,12.0,0.,12.0,0.,12.0,0.,12.0
1979-03-04 15:46:19.010 ,6,0,5.,12.0,0.,12.0,0.,12.0,0.,12.0
1979-03-04 15:46:31.010 ,6,0,8.,12.0,0.,12.0,0.,12.0,0.,12.0
1979-03-04 15:46:43.010 ,7,0,2.,12.0,0.,12.0,0.,12.0,0.,12.0
1979-03-04 15:46:55.010 ,7,0,0.,12.0,0.,12.0,0.,12.0,0.,12.0
1979-03-04 15:47:07.010 ,7,0,0.,12.0,0.,12.0,0.,12.0,0.,12.0
1979-03-04 15:47:19.010 ,7,0,0.,12.0,0.,12.0,0.,12.0,0.,12.0
1979-03-04 15:47:31.010 ,6,0,0.,12.0,0.,12.0,0.,12.0,0.,12.0
1979-03-04 15:47:43.010 ,6,0,2.,12.0,0.,12.0,0.,12.0,0.,12.0
1979-03-04 15:47:55.010 ,5,0,7.,12.0,0.,12.0,0.,12.0,0.,12.0
1979-03-04 15:48:07.010 ,5,0,3.,12.0,0.,12.0,0.,12.0,0.,12.0
1979-03-04 15:48:19.010 ,4,0,10.,12.0,0.,12.0,0.,12.0,0.,12.0
1979-03-04 15:48:31.010 ,4,0,4.,12.0,0.,12.0,0.,12.0,0.,12.0
1979-03-04 15:48:43.010 ,3,0,5.,12.0,0.,12.0,0.,12.0,0.,12.0
1979-03-04 15:48:55.010 ,3,0,3.,12.0,0.,12.0,0.,12.0,0.,12.0
1979-03-04 15:49:07.010 ,2,0,0.,12.0,0.,12.0,0.,12.0,0.,12.0
1979-03-04 15:49:19.010 ,2,0,2.,12.0,0.,12.0,0.,12.0,0.,12.0
1979-03-04 15:49:31.010 ,1,0,6.,12.0,0.,12.0,0.,12.0,0.,12.0
1979-03-04 15:49:43.010 ,1,0,0.,12.0,0.,12.0,0.,12.0,0.,12.0
1979-03-04 15:49:55.010 ,0,0,3.,12.0,0.,12.0,0.,12.0,0.,12.0
1979-03-04 15:50:07.010 ,0,0,5.,12.0,0.,12.0,0.,12.0,0.,12.0
1979-03-04 15:50:19.010 ,0,0,0.,12.0,0.,12.0,0.,12.0,0.,12.0
1979-03-04 15:50:31.010 ,0,0,1.,12.0,0.,12.0,0.,12.0,0.,12.0
1979-03-04 15:50:43.010 ,1,0,3.,12.0,0.,12.0,0.,12.0,0.,12.0
1979-03-04 15:50:55.010 ,1,0,2.,12.0,0.,12.0,0.,12.0,0.,12.0
1979-03-04 15:51:07.010 ,2,0,1.,12.0,0.,12.0,0.,12.0,0.,12.0
1979-03-04 15:51:19.010 ,2,0,0.,12.0,0.,12.0,0.,12.0,0.,12.0
1979-03-04 15:51:31.010 ,3,0,2.,12.0,0.,12.0,0.,12.0,0.,12.0
1979-03-04 15:51:43.010 ,3,0,0.,12.0,0.,12.0,0.,12.0,0.,12.0
1979-03-04 15:51:55.010 ,4,0,1.,12.0,0.,12.0,0.,12.0,0.,12.0
1979-03-04 15:52:07.010 ,4,0,2.,12.0,0.,12.0,0.,12.0,0.,12.0
1979-03-04 15:52:19.010 ,5,0,6.,12.0,0.,12.0,0.,12.0,0.,12.0
1979-03-04 15:52:31.010 ,5,0,6.,12.0,0.,12.0,0.,12.0,0.,12.0
1979-03-04 15:52:43.010 ,6,0,2.,12.0,0.,12.0,0.,12.0,0.,12.0
1979-03-04 15:52:55.010 ,6,0,4.,12.0,0.,12.0,0.,12.0,0.,12.0
1979-03-04 15:53:07.010 ,7,0,5.,12.0,0.,12.0,0.,12.0,0.,12.0
1979-03-04 15:53:19.010 ,7,0,0.,12.0,0.,12.0,0.,12.0,0.,12.0
1979-03-04 15:53:31.010 ,7,0,0.,12.0,0.,12.0,0.,12.0,0.,12.0
1979-03-04 15:53:43.010 ,7,0,0.,12.0,0.,12.0,0.,12.0,0.,12.0
1979-03-04 15:53:55.010 ,6,0,0.,12.0,0.,12.0,0.,12.0,0.,12.0
1979-03-04 15:54:07.010 ,6,0,9.,12.0,0.,12.0,0.,12.0,0.,12.0
1979-03-04 15:54:19.010 ,5,0,1.,12.0,0.,12.0,0.,12.0,0.,12.0
1979-03-04 15:54:31.010 ,5,0,7.,12.0,0.,12.0,0.,12.0,0.,12.0
1979-03-04 15:54:43.010 ,4,0,4.,12.0,0.,12.0,0.,12.0,0.,12.0
1979-03-04 15:54:55.010 ,4,0,2.,12.0,0.,12.0,0.,12.0,0.,12.0
1979-03-04 15:55:07.010 ,3,0,1.,12.0,0.,12.0,0.,12.0,0.,12.0
1979-03-04 15:55:19.010 ,3,0,2.,12.0,0.,12.0,0.,12.0,0.,12.0
1979-03-04 15:55:31.010 ,2,0,3.,12.0,0.,12.0,0.,12.0,0.,12.0
1979-03-04 15:55:43.010 ,2,0,2.,12.0,0.,12.0,0.,12.0,0.,12.0
1979-03-04 15:55:55.010 ,1,0,1.,12.0,0.,12.0,0.,12.0,0.,12.0
1979-03-04 15:56:07.010 ,1,0,1.,12.0,0.,12.0,0.,12.0,0.,12.0
1979-03-04 15:56:19.010 ,0,0,1.,12.0,0.,12.0,0.,12.0,0.,12.0
1979-03-04 15:56:31.010 ,0,0,0.,12.0,0.,12.0,0.,12.0,0.,12.0
1979-03-04 15:56:43.010 ,0,0,3.,12.0,0.,12.0,0.,12.0,0.,12.0
1979-03-04 15:56:55.010 ,0,0,2.,12.0,0.,12.0,0.,12.0,0.,12.0
1979-03-04 15:57:07.010 ,1,0,0.,12.0,0.,12.0,0.,12.0,0.,12.0
1979-03-04 15:57:19.010 ,1,0,0.,12.0,0.,12.0,0.,12.0,0.,12.0
1979-03-04 15:57:31.010 ,2,0,0.,12.0,0.,12.0,0.,12.0,0.,12.0
1979-03-04 15:57:43.010 ,2,0,0.,12.0,0.,12.0,0.,12.0,0.,12.0
1979-03-04 15:57:55.010 ,3,0,0.,12.0,0.,12.0,0.,12.0,0.,12.0
1979-03-04 15:58:07.010 ,3,0,0.,12.0,0.,12.0,0.,12.0,0.,12.0
1979-03-04 15:58:19.010 ,4,0,0.,12.0,0.,12.0,0.,12.0,0.,12.0
1979-03-04 15:58:31.010 ,4,0,0.,12.0,0.,12.0,0.,12.0,0.,12.0
1979-03-04 15:58:43.010 ,5,0,0.,12.0,0.,12.0,0.,12.0,0.,12.0
1979-03-04 15:58:55.010 ,5,0,0.,12.0,0.,12.0,0.,12.0,0.,12.0
1979-03-04 15:59:07.010 ,6,0,2.,12.0,0.,12.0,0.,12.0,0.,12.0
1979-03-04 15:59:19.010 ,6,0,3.,12.0,0.,12.0,0.,12.0,0.,12.0
1979-03-04 15:59:31.010 ,7,0,2.,12.0,0.,12.0,0.,12.0,0.,12.0
1979-03-04 15:59:43.010 ,7,0,0.,12.0,0.,12.0,0.,12.0,0.,12.0
1979-03-04 15:59:55.010 ,7,0,0.,12.0,0.,12.0,0.,12.0,0.,12.0
1979-03-04 16:00:07.010 ,7,0,0.,12.0,0.,12.0,0.,12.0,0.,12.0
1979-03-04 16:00:19.010 ,6,0,0.,12.0,0.,12.0,0.,12.0,0.,12.0
1979-03-04 16:00:31.010 ,6,0,4.,12.0,0.,12.0,0.,12.0,0.,12.0
1979-03-04 16:00:43.010 ,5,0,2.,12.0,0.,12.0,0.,12.0,0.,12.0
1979-03-04 16:00:55.010 ,5,0,1.,12.0,0.,12.0,0.,12.0,0.,12.0
1979-03-04 16:01:07.010 ,4,0,2.,12.0,0.,12.0,0.,12.0,1.,12.0
1979-03-04 16:01:19.010 ,4,0,3.,12.0,0.,12.0,0.,12.0,0.,12.0
1979-03-04 16:01:31.010 ,3,0,2.,12.0,0.,12.0,0.,12.0,0.,12.0
1979-03-04 16:01:43.010 ,3,0,1.,12.0,0.,12.0,0.,12.0,0.,12.0
1979-03-04 16:01:55.010 ,2,0,0.,12.0,0.,12.0,0.,12.0,0.,12.0
1979-03-04 16:02:07.010 ,2,0,0.,12.0,0.,12.0,0.,12.0,0.,12.0
1979-03-04 16:02:19.010 ,1,0,0.,12.0,0.,12.0,0.,12.0,0.,12.0
1979-03-04 16:02:31.010 ,1,0,0.,12.0,0.,12.0,0.,12.0,0.,12.0
1979-03-04 16:02:43.010 ,0,0,0.,12.0,0.,12.0,0.,12.0,0.,12.0
1979-03-04 16:02:55.010 ,0,0,1.,12.0,0.,12.0,0.,12.0,0.,12.0
1979-03-04 16:03:07.010 ,0,0,5.,12.0,0.,12.0,0.,12.0,0.,12.0
1979-03-04 16:03:19.010 ,0,0,3.,12.0,0.,12.0,0.,12.0,0.,12.0
1979-03-04 16:03:31.010 ,1,0,1.,12.0,0.,12.0,0.,12.0,0.,12.0
1979-03-04 16:03:43.010 ,1,0,2.,12.0,0.,12.0,0.,12.0,0.,12.0
1979-03-04 16:03:55.010 ,2,0,0.,12.0,0.,12.0,0.,12.0,0.,12.0
1979-03-04 16:04:07.010 ,2,0,1.,12.0,0.,12.0,0.,12.0,0.,12.0
1979-03-04 16:04:19.010 ,3,0,0.,12.0,0.,12.0,0.,12.0,0.,12.0
1979-03-04 16:04:31.010 ,3,0,2.,12.0,0.,12.0,0.,12.0,0.,12.0
1979-03-04 16:04:43.010 ,4,0,3.,12.0,0.,12.0,0.,12.0,0.,12.0
1979-03-04 16:04:55.010 ,4,0,5.,12.0,0.,12.0,0.,12.0,0.,12.0
1979-03-04 16:05:07.010 ,5,0,4.,12.0,0.,12.0,0.,12.0,0.,12.0
1979-03-04 16:05:19.010 ,5,0,7.,12.0,0.,12.0,0.,12.0,0.,12.0
1979-03-04 16:05:31.010 ,6,0,1.,12.0,0.,12.0,0.,12.0,0.,12.0
1979-03-04 16:05:43.010 ,6,0,3.,12.0,0.,12.0,0.,12.0,0.,12.0
1979-03-04 16:05:55.010 ,7,0,1.,12.0,0.,12.0,0.,12.0,0.,12.0
1979-03-04 16:06:07.010 ,7,0,0.,12.0,0.,12.0,0.,12.0,0.,12.0
1979-03-04 16:06:19.010 ,7,0,0.,12.0,0.,12.0,0.,12.0,0.,12.0
1979-03-04 16:06:31.010 ,7,0,0.,12.0,0.,12.0,0.,12.0,0.,12.0
1979-03-04 16:06:43.010 ,6,0,0.,12.0,0.,12.0,0.,12.0,0.,12.0
1979-03-04 16:06:55.010 ,6,0,1.,12.0,0.,12.0,0.,12.0,0.,12.0
1979-03-04 16:07:07.010 ,5,0,1.,12.0,0.,12.0,0.,12.0,0.,12.0
1979-03-04 16:07:19.010 ,5,0,3.,12.0,0.,12.0,0.,12.0,0.,12.0
1979-03-04 16:07:31.010 ,4,0,0.,12.0,0.,12.0,0.,12.0,0.,12.0
1979-03-04 16:07:43.010 ,4,0,2.,12.0,0.,12.0,0.,12.0,0.,12.0
1979-03-04 16:07:55.010 ,3,0,5.,12.0,0.,12.0,0.,12.0,0.,12.0
1979-03-04 16:08:07.010 ,3,0,1.,12.0,0.,12.0,0.,12.0,0.,12.0
1979-03-04 16:08:19.010 ,2,0,2.,12.0,0.,12.0,0.,12.0,0.,12.0
1979-03-04 16:08:31.010 ,2,0,1.,12.0,0.,12.0,0.,12.0,0.,12.0
1979-03-04 16:08:43.010 ,1,0,0.,12.0,0.,12.0,0.,12.0,0.,12.0
1979-03-04 16:08:55.010 ,1,0,2.,12.0,0.,12.0,0.,12.0,0.,12.0
1979-03-04 16:09:07.010 ,0,0,,0,,0,,0,,0
1979-03-04 16:09:19.010 ,0,0,0.,12.0,0.,12.0,0.,12.0,0.,12.0
1979-03-04 16:09:31.010 ,0,0,1.,12.0,0.,12.0,0.,12.0,0.,12.0
1979-03-04 16:09:43.010 ,0,0,1.,12.0,0.,12.0,0.,12.0,0.,12.0
1979-03-04 16:09:55.010 ,1,0,1.,12.0,0.,12.0,0.,12.0,0.,12.0
1979-03-04 16:10:07.010 ,1,0,1.,12.0,0.,12.0,0.,12.0,0.,12.0
1979-03-04 16:10:19.010 ,2,0,0.,12.0,0.,12.0,0.,12.0,0.,12.0
1979-03-04 16:10:31.010 ,2,0,0.,12.0,0.,12.0,0.,12.0,0.,12.0
1979-03-04 16:10:43.010 ,0,0,1.,12.0,0.,12.0,0.,12.0,0.,12.0
1979-03-04 16:10:55.010 ,0,0,3.,12.0,0.,12.0,0.,12.0,0.,12.0
1979-03-04 16:11:15.410 ,0,0,,0,,0,,0,,0
1979-03-04 16:11:27.410 ,0,0,6.,12.0,0.,12.0,0.,12.0,0.,12.0
1979-03-04 16:11:31.010 ,5,0,2.,12.0,0.,12.0,0.,12.0,0.,12.0
1979-03-04 16:11:43.010 ,5,0,3.,12.0,0.,12.0,0.,12.0,0.,12.0
1979-03-04 16:11:55.010 ,6,0,7.,12.0,0.,12.0,0.,12.0,0.,12.0
1979-03-04 16:12:07.010 ,6,0,4.,12.0,0.,12.0,0.,12.0,0.,12.0
1979-03-04 16:12:19.010 ,7,0,4.,12.0,0.,12.0,0.,12.0,0.,12.0
1979-03-04 16:12:31.010 ,7,0,0.,12.0,0.,12.0,0.,12.0,0.,12.0
1979-03-04 16:12:43.010 ,7,0,0.,12.0,0.,12.0,0.,12.0,0.,12.0
1979-03-04 16:12:55.010 ,7,0,0.,12.0,0.,12.0,0.,12.0,0.,12.0
1979-03-04 16:13:07.010 ,6,0,0.,12.0,0.,12.0,0.,12.0,0.,12.0
1979-03-04 16:13:19.010 ,6,0,4.,12.0,0.,12.0,0.,12.0,0.,12.0
1979-03-04 16:13:31.010 ,5,0,0.,12.0,0.,12.0,0.,12.0,0.,12.0
1979-03-04 16:13:43.010 ,5,0,5.,12.0,0.,12.0,0.,12.0,0.,12.0
1979-03-04 16:13:55.010 ,4,0,4.,12.0,0.,12.0,0.,12.0,0.,12.0
1979-03-04 16:14:07.010 ,4,0,4.,12.0,0.,12.0,0.,12.0,0.,12.0
1979-03-04 16:14:19.010 ,3,0,2.,12.0,0.,12.0,0.,12.0,0.,12.0
1979-03-04 16:14:31.010 ,3,0,3.,12.0,0.,12.0,0.,12.0,0.,12.0
1979-03-04 16:14:43.010 ,2,0,2.,12.0,0.,12.0,0.,12.0,0.,12.0
1979-03-04 16:14:55.010 ,2,0,0.,12.0,0.,12.0,0.,12.0,0.,12.0
1979-03-04 16:15:07.010 ,1,0,1.,12.0,0.,12.0,0.,12.0,0.,12.0
1979-03-04 16:15:19.010 ,1,0,2.,12.0,0.,12.0,0.,12.0,0.,12.0
1979-03-04 16:15:31.010 ,0,0,1.,12.0,0.,12.0,0.,12.0,0.,12.0
1979-03-04 16:15:43.010 ,0,0,0.,12.0,0.,12.0,0.,12.0,0.,12.0
1979-03-04 16:15:55.010 ,0,0,1.,12.0,0.,12.0,0.,12.0,0.,12.0
1979-03-04 16:16:07.010 ,0,0,2.,12.0,0.,12.0,0.,12.0,0.,12.0
1979-03-04 16:16:19.010 ,1,0,1.,12.0,0.,12.0,0.,12.0,0.,12.0
1979-03-04 16:16:31.010 ,1,0,0.,12.0,0.,12.0,0.,12.0,0.,12.0
1979-03-04 16:16:43.010 ,2,0,0.,12.0,0.,12.0,0.,12.0,0.,12.0
1979-03-04 16:16:55.010 ,2,0,0.,12.0,0.,12.0,0.,12.0,0.,12.0
1979-03-04 16:17:07.010 ,3,0,1.,12.0,0.,12.0,0.,12.0,0.,12.0
1979-03-04 16:17:19.010 ,3,0,3.,12.0,0.,12.0,0.,12.0,0.,12.0
1979-03-04 16:17:31.010 ,4,0,3.,12.0,0.,12.0,0.,12.0,0.,12.0
1979-03-04 16:17:43.010 ,4,0,2.,12.0,0.,12.0,0.,12.0,0.,12.0
1979-03-04 16:17:55.010 ,5,0,3.,12.0,0.,12.0,0.,12.0,0.,12.0
1979-03-04 16:18:07.010 ,5,0,5.,12.0,0.,12.0,0.,12.0,0.,12.0
1979-03-04 16:18:19.010 ,6,0,1.,12.0,0.,12.0,0.,12.0,0.,12.0
1979-03-04 16:18:31.010 ,6,0,2.,12.0,0.,12.0,0.,12.0,0.,12.0
1979-03-04 16:18:43.010 ,7,0,2.,12.0,0.,12.0,0.,12.0,0.,12.0
1979-03-04 16:18:55.010 ,7,0,0.,12.0,0.,12.0,0.,12.0,0.,12.0
1979-03-04 16:19:07.010 ,7,0,0.,12.0,0.,12.0,0.,12.0,0.,12.0
1979-03-04 16:19:19.010 ,7,0,0.,12.0,0.,12.0,0.,12.0,0.,12.0
1979-03-04 16:19:31.010 ,6,0,0.,12.0,0.,12.0,0.,12.0,0.,12.0
1979-03-04 16:19:43.010 ,6,0,3.,12.0,0.,12.0,0.,12.0,0.,12.0
1979-03-04 16:19:55.010 ,5,0,6.,12.0,0.,12.0,0.,12.0,0.,12.0
1979-03-04 16:20:07.010 ,5,0,1.,12.0,0.,12.0,0.,12.0,0.,12.0
1979-03-04 16:20:19.010 ,4,0,4.,12.0,0.,12.0,0.,12.0,0.,12.0
1979-03-04 16:20:31.010 ,4,0,5.,12.0,0.,12.0,0.,12.0,0.,12.0
1979-03-04 16:20:43.010 ,3,0,3.,12.0,0.,12.0,0.,12.0,0.,12.0
1979-03-04 16:20:55.010 ,3,0,3.,12.0,0.,12.0,0.,12.0,0.,12.0
1979-03-04 16:21:07.010 ,2,0,5.,12.0,0.,12.0,0.,12.0,0.,12.0
1979-03-04 16:21:19.010 ,2,0,1.,12.0,0.,12.0,0.,12.0,0.,12.0
1979-03-04 16:21:31.010 ,1,0,2.,12.0,0.,12.0,0.,12.0,0.,12.0
1979-03-04 16:21:43.010 ,1,0,1.,12.0,0.,12.0,0.,12.0,0.,12.0
1979-03-04 16:21:55.010 ,0,0,3.,12.0,0.,12.0,0.,12.0,0.,12.0
1979-03-04 16:22:07.010 ,0,0,4.,12.0,0.,12.0,0.,12.0,0.,12.0
1979-03-04 16:22:19.010 ,0,0,1.,12.0,0.,12.0,0.,12.0,0.,12.0
1979-03-04 16:22:31.010 ,0,0,1.,12.0,0.,12.0,0.,12.0,0.,12.0
1979-03-04 16:22:43.010 ,0,0,,0,,0,,0,,0
1979-03-04 16:22:55.010 ,0,0,,0,,0,,0,,0
1979-03-04 16:26:01.010 ,0,0,0.,12.0,0.,12.0,0.,12.0,0.,12.0
1979-03-04 16:26:13.010 ,0,0,5.,12.0,0.,12.0,0.,12.0,0.,12.0
1979-03-04 16:26:19.010 ,5,0,6.,12.0,0.,12.0,0.,12.0,0.,12.0
1979-03-04 16:26:31.010 ,5,0,1.,12.0,0.,12.0,0.,12.0,0.,12.0
1979-03-04 16:26:43.010 ,4,0,3.,12.0,0.,12.0,0.,12.0,0.,12.0
1979-03-04 16:26:55.010 ,4,0,0.,12.0,0.,12.0,0.,12.0,0.,12.0
1979-03-04 16:27:07.010 ,3,0,2.,12.0,0.,12.0,0.,12.0,0.,12.0
1979-03-04 16:27:19.010 ,3,0,1.,12.0,0.,12.0,0.,12.0,0.,12.0
1979-03-04 16:27:31.010 ,2,0,0.,12.0,0.,12.0,0.,12.0,0.,12.0
1979-03-04 16:27:43.010 ,2,0,0.,12.0,0.,12.0,0.,12.0,0.,12.0
1979-03-04 16:27:55.010 ,1,0,0.,12.0,0.,12.0,0.,12.0,0.,12.0
1979-03-04 16:28:07.010 ,1,0,2.,12.0,0.,12.0,0.,12.0,0.,12.0
1979-03-04 16:28:19.010 ,0,0,3.,12.0,0.,12.0,0.,12.0,0.,12.0
1979-03-04 16:28:31.010 ,0,0,2.,12.0,0.,12.0,0.,12.0,0.,12.0
1979-03-04 16:28:43.010 ,0,0,0.,12.0,0.,12.0,0.,12.0,0.,12.0
1979-03-04 16:28:55.010 ,0,0,5.,12.0,0.,12.0,0.,12.0,0.,12.0
1979-03-04 16:29:07.010 ,1,0,2.,12.0,0.,12.0,0.,12.0,0.,12.0
1979-03-04 16:29:19.010 ,1,0,1.,12.0,0.,12.0,0.,12.0,0.,12.0
1979-03-04 16:29:31.010 ,2,0,0.,12.0,0.,12.0,0.,12.0,0.,12.0
1979-03-04 16:29:43.010 ,2,0,0.,12.0,0.,12.0,0.,12.0,0.,12.0
1979-03-04 16:29:55.010 ,3,0,0.,12.0,0.,12.0,0.,12.0,0.,12.0
1979-03-04 16:30:07.010 ,3,0,0.,12.0,0.,12.0,0.,12.0,0.,12.0
1979-03-04 16:30:19.010 ,4,0,1.,12.0,0.,12.0,0.,12.0,0.,12.0
1979-03-04 16:30:31.010 ,4,0,1.,12.0,0.,12.0,0.,12.0,0.,12.0
1979-03-04 16:30:43.010 ,5,0,4.,12.0,0.,12.0,0.,12.0,0.,12.0
1979-03-04 16:30:55.010 ,5,0,1.,12.0,0.,12.0,0.,12.0,0.,12.0
1979-03-04 16:31:07.010 ,6,0,2.,12.0,0.,12.0,0.,12.0,0.,12.0
1979-03-04 16:31:19.010 ,6,0,3.,12.0,0.,12.0,0.,12.0,0.,12.0
1979-03-04 16:31:31.010 ,7,0,3.,12.0,0.,12.0,0.,12.0,0.,12.0
1979-03-04 16:31:43.010 ,7,0,0.,12.0,0.,12.0,0.,12.0,0.,12.0
1979-03-04 16:31:55.010 ,7,0,0.,12.0,0.,12.0,0.,12.0,0.,12.0
1979-03-04 16:32:07.010 ,7,0,0.,12.0,0.,12.0,0.,12.0,0.,12.0
1979-03-04 16:32:19.010 ,6,0,0.,12.0,0.,12.0,0.,12.0,0.,12.0
1979-03-04 16:32:31.010 ,6,0,2.,12.0,0.,12.0,0.,12.0,0.,12.0
1979-03-04 16:32:43.010 ,5,0,0.,12.0,0.,12.0,0.,12.0,0.,12.0
1979-03-04 16:32:55.010 ,5,0,0.,12.0,0.,12.0,0.,12.0,0.,12.0
1979-03-04 16:33:07.010 ,4,0,3.,12.0,0.,12.0,0.,12.0,0.,12.0
1979-03-04 16:33:19.010 ,4,0,0.,12.0,0.,12.0,0.,12.0,0.,12.0
1979-03-04 16:33:55.010 ,2,0,2.,12.0,0.,12.0,0.,12.0,0.,12.0